Back to catalog

THORAD AGENA D DEB

AliveSSO
NORAD 4979·DEBRIS·🇺🇸 United States

Launched Apr 8, 1970 from Vandenberg Space Force Base

Loading…

Next Passes (next 24 hours)

TLE

FreshSource: Space-Track

Epoch: Sep 14, 2026, 14:49 UTC

1 04979U 70025GZ  26257.61769130  .00000082  00000-0  17253-3 0  9999
2 04979 100.0330 142.9545 0011936 265.0002 124.5573 13.60014297794205

Track THORAD AGENA D DEB in real time with AllMySat

Download on the App Store